45P/Honda-Mrkos-Pajdusakova (2016)

Japanese version
Home page
Updated on January 8, 2017

---------------------------------------------------------------------

* Profile

* Pictures

* Orbital Elements

Epoch 2017 Jan. 7.0 TT = JDT 2457760.5
T 2016 Dec. 31.26606 TT                                 MPCW
q   0.5325591            (2000.0)            P               Q
n   0.18738395     Peri.  326.26224     +0.56822255     -0.81953296
a   3.0244596      Node    89.00502     +0.77039813     +0.49818754
e   0.8239160      Incl.    4.24940     +0.28915368     +0.28315173
P   5.26
From 1079 observations 2006 May 30-2016 Dec. 27, mean residual 0".7.
     Nongravitational parameters A1 = +1.05, A2 = -0.0216.

* Finding Charts

* Magnitudes Graph

        m1 = 14.2 + 5 log d + 23.0 log r  [ ,0]  (             - 2016 Dec. 31)
        m1 = 12.0 + 5 log d + 15.0 log r  [0, ]  (2016 Dec. 31 -             )

---------------------------------------------------------------------

The orbital elements are published on M.P.E.C. 2016-Y69.
The charts are made with StellaNavigator Ver.8 (AstroArts).
The magnitudes graphs are made with Comet for Windows.

---------------------------------------------------------------------

Copyright(C) Seiichi Yoshida (comet@aerith.net). All rights reserved.